Regional Weather Roundup
Issued by NWS Jackson, KY

Home | Current Version | Previous Version | Text Only | Print | Product List | Glossary On
Versions: 1 2 3 4 5 6 7 8 9 10 11 12 13 14 15 16 17 18 19 20 21 22 23 24 25 26 27
000
ASUS43 KJKL 290310
RWRJKL

EAST KENTUCKY HOURLY WEATHER ROUNDUP
NATIONAL WEATHER SERVICE JACKSON KY
1100 PM EDT SUN AUG 28 2016

NOTE: "FAIR" INDICATES FEW OR NO CLOUDS BELOW 12,000 FEET WITH
NO SIGNIFICANT WEATHER AND/OR OBSTRUCTIONS TO VISIBILITY.

* THESE REPORTS ARE NOT UNDER NWS QUALITY CONTROL AND MAY NOT
  REPORT WEATHER SUCH AS PRECIPITATION AND FOG.

KYZ079-080-083-085-087-088-110-112-115-119-120-290400
...EASTERN KENTUCKY...

CITY           SKY/WX    TMP DP  RH WIND       PRES   REMARKS
JACKSON        PTCLDY    72  69  90 CALM      30.21R
LONDON         PTCLDY    71  66  84 SE3       30.19S
SOMERSET*      PTCLDY    70  70 100 CALM      30.20S
MONTICELLO*    CLOUDY   N/A N/A N/A N8        30.19F
WILLIAMSBURG*  PTCLDY    72  72 100 CALM      30.19S
MIDDLESBORO*   PTCLDY    71  70  95 CALM      30.20S
HARLAN APT*      N/A     72  68  88 CALM      30.21S
PIKE CO APT*     N/A     75  73  93 N5        30.21R
BIG SANDY APT* PTCLDY    75  71  88 NE5       30.21R
MOREHEAD APT*  CLOUDY    72  70  94 N5        30.23R
$$

KYZ035-036-041-042-044-050-067-078-099-290400
...CENTRAL KENTUCKY...

CITY           SKY/WX    TMP DP  RH WIND       PRES   REMARKS
MT STERLING*   MOCLDY    70  68  94 NE3       30.22R
FLEMING/MASON* LGT RAIN  70  69  95 N8        30.23R
DANVILLE*      MOCLDY    70  64  83 CALM      30.22R
LEXINGTON      PTCLDY    72  68  87 NE8       30.21R
FRANKFORT      PTCLDY    73  68  84 CALM      30.19S
LOUISVILLE     PTCLDY    78  68  71 VRB5      30.19R
LEBANON*         N/A     70  68  94 CALM      30.20R
GLASGOW*       CLEAR     72  72  99 CALM      30.16S
BOWLING GREEN  CLEAR     75  70  84 N3        30.15S
$$

KYZ091>093-OHZ055-061-077-WVZ005-015-034-035-042-290400
...SOUTHERN OHIO/WEST VIRGINIA...

CITY           SKY/WX    TMP DP  RH WIND       PRES   REMARKS
COVINGTON      CLOUDY    72  71  97 NE15      30.24R
COLUMBUS       CLOUDY    73  69  87 NW5       30.20R
DAYTON         CLOUDY    71  68  90 SW10      30.24F
WILMINGTON     LGT RAIN  69  66  90 CALM      30.24F
HUNTINGTON     MOCLDY    74  69  85 NW3       30.19R
CHARLESTON     PTCLDY    75  71  87 CALM      30.19R
PINEVILLE*     PTCLDY    71  67  88 MISG      30.28R
BECKLEY        PTCLDY    73  66  78 CALM      30.28R
BLUEFIELD      CLEAR     70  59  68 N5        30.30R
LOGAN CO APT*  MOCLDY    70  68  94 CALM      30.22R
$$

VAZ002-007-008-TNZ017-027-036-066-071-290400
...SOUTHWEST VIRGINIA/EAST TENNESSEE...

CITY           SKY/WX    TMP DP  RH WIND       PRES   REMARKS
WISE*          PTCLDY    72  70  94 CALM      30.28S
JONESVILLE*      N/A     72  70  94 CALM      30.21S FOG
ABINGDON*      PTCLDY    77  67  72 NE3       30.24R
BRISTOL        CLOUDY    74  70  87 CALM      30.19R
MORRISTOWN*    PTCLDY    73  72  94 CALM      30.16F
SEVIERVILLE*   CLEAR     72  70  94 CALM      30.16R
KNOXVILLE      MOCLDY    75  68  78 N6        30.15S
OAK RIDGE      CLOUDY    74  69  85 CALM      30.17S
CROSSVILLE     CLOUDY    69  68  96 E6        30.23R
NASHVILLE      PTCLDY    79  71  76 NE9       30.14S
$$

...KEY TO REMARKS...
VSB - VISIBILITY IN MILES
WCI - WIND CHILL INDEX
HX  - HEAT INDEX

$$




USA.gov is the U.S. government's official web portal to all federal, state and local government web resources and services.